Location: Caseificio
(44.7500°N, 11.0500°E)
Time: 23:32:26
(UTC+00:00)

ADEOS II - Pass Details

Date: 26 May 2022
Orbit: 798 x 801 km, 98.6° (Epoch: 26 June)

Event Time Altitude Azimuth Distance (km) Brightness Sun altitude
Rises 23:58:45 0° 32° (NNE) 3,315 6.5 -23.3°
Reaches altitude 10° 00:02:15 10° 56° (NE) 2,379 5.1 -23.2°
Maximum altitude 00:05:03 14° 89° (E) 2,074 4.4 -23.1°
Enters shadow 00:07:47 10° 121° (ESE) 2,354 4.3 -23.0°
